OBJECT A, 49003

Orbit data source: Space-Track

You're viewing an Uncataloged Satellite

Recently launched and/or uncataloged satellites may have evolving metadata. Metadata may include but not limited to: Owner, Maufacturer, Bus, Motor, and Mission.

OBJECT A, 49003 is a satellite owned by Changguang WJ (CN) in SSO that was launched on Sat, 03 Jul 2021 UTC via a CHANG ZHENG 2D launch vehicle from the Taiyaun Space Center, China (TSC). Unknown objects in Earth's orbit typically refer to objects detected orbiting the Earth but have not yet been identified or cataloged. These objects could be anything from previously untracked satellites, spent rocket stages, debris from satellite collisions, or even natural meteoroids temporarily captured by Earth's gravity.

Loading next visibility...
Identifier
49003, 2021-061A
Orbit
SSO
Country
Flag of CNCN / PRC
Related business
Manufacturer
HARB/CGSTL
Mission
Operational Commercial Imaging
Bus & Motor
JL-1, Unknown motor
Mass
1,250 kg wet, 1,250 kg dry
Launch date (UTC)
2021-07-03 (5 years ago)
Launch vehicle
CHANG ZHENG 2D
Launch site
Taiyaun Space Center, China (TSC)
Object type
Unknown
Shape & HBR
Box + 2 Pan, 0.8 m
Radar Cross Section
2.000 m², Large (>1 m²)

Expand to show TLE details & history
Last TLE update: 23 hours ago

TLE from 23 hours ago
0 OBJECT A
1 49003U 21061A   26172.54682676  .00002810  00000-0  17819-3 0  9998
2 49003  97.5206 248.6628 0008017  53.0894 307.1068 15.09698680274008
Epoch: 2026-06-21T13:07Z
TLE epoch observation values (Epoch: 2026-06-21T13:07:25.832Z)
Latitude
-0.00006°
Longitude
142.05964°
Altitude
536.85 km
Speed
7.596 km/s
True Right ascension
16h 34m 39s
True Declination
0° 00' 00"
Sunlit
Object was in full shadow at epoch
Visualization orbit readout
Latitude
Unknown
Longitude
Unknown
Altitude
Unknown
Speed
Unknown
Apparent Right ascension
Unknown
Apparent Declination
Unknown
Sunlit
N/A
Visualization observer readout
Local Sidereal Time
23:07:45
Azimuth
Unknown
Elevation
Unknown
Doppler factor
Unknown
Orbital elements
Apogee altitude
539.646 km
Perigee altitude
528.563 km
Semi-major axis
6,912.241 km
Eccentricity
0.0008
Inclination
97.5206°
RAAN
248.6628°
Arg. of periapsis
53.0894°
True anomaly
307.03349°
Mean anomaly
307.1068°
Eccentric anomaly
307.07015°
Mean motion
3.77672 °/min
Orbital period
95.32 mins
BSTAR
0.00017819
Loading maneuver chart data...
Computing Atmospheric mass density...
Loading historical data...
Loading historical data...
Loading historical data...
Loading historical data...
Loading historical data...
Loading historical data...
Loading historical data...

Documentation

Showing up to 5 results
|